Regional Weather Roundup
Issued by NWS

Home | Current Version | Previous Version | Graphics & Text | Print | Product List | Glossary On
Versions: 1 2 3 4 5 6 7 8 9 10 11 12 13 14 15 16 17 18 19 20 21 22 23 24 25 26 27 28 29 30 31 32 33 34 35 36 37 38 39 40 41 42 43 44 45 46 47 48 49 50
000
ASUS43 KMPX 270710
RWRMN
WEATHER ROUNDUP FOR MINNESOTA
NATIONAL WEATHER SERVICE TWIN CITIES/CHANHASSEN MN
100 AM CST SAT DEC 27 2014


NOTE: "FAIR" INDICATES FEW OR NO CLOUDS BELOW 12,000 FEET WITH NO
SIGNIFICANT WEATHER AND/OR OBSTRUCTIONS TO VISIBILITY. N/A MEANS
CURRENT SKY AND/OR WEATHER CONDITIONS ARE NOT AVAILABLE.

MNZ060>063-068>070-270800-
   Twin Cities Metro

CITY           SKY/WX    TMP DP  RH WIND       PRES   REMARKS
TWIN CITIES    LGT SNOW  27  24  89 N10       30.04R FOG     WCI  17
ST PAUL        LGT SNOW  28  25  88 NW7       30.05R FOG     WCI  21
CRYSTAL        LGT SNOW  28  24  85 N10       30.03S FOG     WCI  19
BLAINE         MIX PCPN  28  27  93 N10       30.04R WCI  19
LAKEVILLE      MIX PCPN  27  25  93 N10       30.01S WCI  17
EDEN PRAIRIE   LGT SNOW  27  24  89 N9        30.02R FOG     WCI  18
SOUTH ST PAUL  LGT SNOW  29  26  90 N9        30.03R WCI  20
LAKE ELMO      LGT SNOW  28  27  93 N6        30.02R WCI  22
$$
MNZ001>005-007-008-013>017-022>024-027-028-270800-
   Northwest Minnesota

CITY           SKY/WX    TMP DP  RH WIND       PRES   REMARKS
BEMIDJI        FLURRIES  15  11  85 NW8       30.11F WCI   4
HALLOCK        LGT SNOW   7   3  85 CALM      30.20F
ROSEAU         FLURRIES  12   7  79 W5        30.16F WCI   4
WARROAD        CLOUDY    10   5  79 W6        30.15F WCI   1
THIEF RVR FALL CLOUDY    10   7  85 NW7       30.16F WCI   0
CROOKSTON      FLURRIES   9   7  92 NW8       30.20F WCI  -4
FOSSTON        FLURRIES  10   7  85 CALM      30.15F
DETROIT LAKES  LGT SNOW  10   9  92 NW9       30.14S WCI  -2
MOORHEAD       CLOUDY     7   5  92 NW8       30.20S WCI  -6
PARK RAPIDS    CLOUDY    19  14  81 N7        30.08F WCI  10
MAHNOMEN       FLURRIES  11   9  91 NW7       30.14F WCI   1
$$
MNZ006-009>011-018-025>026-270800-
   North Central Minnesota

CITY           SKY/WX    TMP DP  RH WIND       PRES   REMARKS
BAUDETTE       CLOUDY    13   5  70 NW7       30.13F WCI   3
FLAG ISLAND    CLOUDY     9   3  78 W3        30.15S
INTL FALLS     CLOUDY    14   8  77 NW6       30.12F WCI   5
WASKISH        FLURRIES  16  10  79 CALM      30.13S
BIG FORK       FLURRIES  19  12  73 CALM      30.10F
LONGVILLE      CLOUDY    19  16  86 CALM      30.09F
GRAND RAPIDS   CLOUDY    19  12  73 N7        30.07F WCI  10
CRANE LAKE     FLURRIES  16  10  79 NW6       30.13F WCI   7
ORR            CLOUDY    16   9  73 CALM      30.07F
COOK           CLOUDY    18  12  79 NW3       30.09F
WALKER         CLOUDY    18  13  79 NW3       30.09F
$$
MNZ012-019>021-037-270800-
   Northeast Minnesota

CITY           SKY/WX    TMP DP  RH WIND       PRES   REMARKS
DULUTH         CLOUDY    24  17  74 N8        30.03F WCI  15
ELY            FLURRIES  18  16  93 NW3       30.07F
HIBBING        CLOUDY    20  14  77 NW9       30.08F WCI   9
EVELETH        MIX PCPN  21  18  86 N5        30.08F WCI  15
DULUTH HARBOR  CLOUDY    28  21  74 N12       30.08F WCI  18
TWO HARBORS    CLOUDY    28  19  69 N3        30.04F
GRAND MARAIS     N/A     27  19  72 NW8       30.07F WCI  19
G MARAIS ARPRT MOCLDY    18  14  86 CALM      30.02F
$$
MNZ029>031-032-039>041-046>048-054>057-064-270800-
   West Central Minnesota

CITY           SKY/WX    TMP DP  RH WIND       PRES   REMARKS
FERGUS FALLS   MOCLDY    10   5  79 N10       30.19R WCI  -3
WHEATON        PTCLDY    10   9  92 NW12      30.19F WCI  -4
MORRIS         CLOUDY    18  16  93 NW16      30.12S WCI   3
ALEXANDRIA     CLOUDY    21  16  81 N7        30.09F WCI  12
ELBOW LAKE     CLOUDY    16  13  89 NW13      30.13S WCI   2
WADENA         CLOUDY    19  16  86 N7        30.09S WCI  10
GLENWOOD       CLOUDY    21  18  86 N5        30.10R WCI  15
APPLETON       CLOUDY    21  18  86 NW16      30.14S WCI   7
BENSON         CLOUDY    21  18  86 N14       30.12S WCI   8
ORTONVILLE     CLOUDY    18  12  79 NW12      30.15S WCI   5
MADISON        CLOUDY    25  19  80 N20       30.14F WCI  11
WILLMAR        CLOUDY    25  19  80 N10       30.09F WCI  15
$$
MNZ033>034-036-042>043-049>051-058-059-270800-
   Central Minnesota

CITY           SKY/WX    TMP DP  RH WIND       PRES   REMARKS
ST CLOUD       CLOUDY    26  18  71 N8        30.07R WCI  18
SAUK CENTRE    CLOUDY    22  16  77 N9        30.09S WCI  12
PAYNESVILLE    CLOUDY    21  17  86 NW8       30.09S WCI  11
AITKIN         CLOUDY    25  16  68 N7        30.06F WCI  17
PINE RIVER     CLOUDY    21  16  79 N5        30.11F WCI  15
BRAINERD       CLOUDY    21  15  78 N6        30.08F WCI  13
STAPLES        CLOUDY    21  16  79 N8        30.08F WCI  12
LONG PRAIRIE   CLOUDY    21  16  79 N7        30.08F WCI  13
LITTLE FALLS   CLOUDY    23  16  74 N5        30.09S WCI  17
LITCHFIELD     LGT SNOW  25  23  93 N12       30.07F WCI  14
BUFFALO        LGT SNOW  25  23  89 N9        30.07R WCI  16
MAPLE LAKE     LGT SNOW  26  23  88 N9        30.07S WCI  17
$$
MNZ037-044-045-052-053-270800-
   East Central Minnesota

CITY           SKY/WX    TMP DP  RH WIND       PRES   REMARKS
PRINCETON      CLOUDY    27  21  80 NW8       30.06R WCI  18
MORA           CLOUDY    27  19  74 N6        30.06F WCI  20
CAMBRIDGE      FLURRIES  28  19  69 N3        30.04S
RUSH CITY      CLOUDY    26  21  81 N9        30.04F WCI  17
MOOSE LAKE     CLOUDY    25  19  80 N8        30.03F WCI  16
HINCKLEY       CLOUDY    27  21  80 CALM      30.04F
CLOQUET          N/A     23  18  80 NW13      30.05F WCI  11
MCGREGOR       CLOUDY    23  18  80 N8        30.07F WCI  14
$$
MNZ071>073-080-081-089-090-097-098-270800-
   Southwest Minnesota

CITY           SKY/WX    TMP DP  RH WIND       PRES   REMARKS
MONTEVIDEO     CLOUDY    21  19  93 N14G20    30.12F WCI   8
GRANITE FALLS  LGT SNOW  23  20  91 NW14      30.11F WCI  10
CANBY          LGT SNOW  20  18  89 N14G20    30.13F WCI   7
MARSHALL       CLOUDY    21  16  79 N18       30.08F WCI   6
REDWOOD FALLS  LGT SNOW  25  22  88 N10       30.06F VSB 1   WCI  15
OLIVIA         LGT SNOW  23  21  93 N9        30.07F WCI  13
PIPESTONE      CLOUDY    21  19  93 N10       30.05S WCI  10
WINDOM         LGT SNOW  25  21  86 N17       30.01F WCI  11
WORTHINGTON    CLOUDY    21 -24  12 N16       30.02S WCI   7
JACKSON        LGT SNOW  27  23  86 N14       29.99F WCI  15
TRACY          LGT SNOW  23  22  95 N15       30.05F WCI  10
SLAYTON        LGT SNOW  21  19  93 N16G22    30.03F WCI   7
$$
MNZ065>067-074>077-082>085-091>093-270800-
   South Central Minnesota

CITY           SKY/WX    TMP DP  RH WIND       PRES   REMARKS
MANKATO        CLOUDY    27  23  86 N15       29.99F WCI  15
NEW ULM        LGT SNOW  25  25 100 N8        30.03F VSB 1   WCI  16
ST JAMES       LGT SNOW  27  25  93 NW15      30.02F WCI  15
FAIRMONT       CLOUDY    27  21  80 N15       29.98F WCI  15
GLENCOE        LGT SNOW  27  26  96 N10       30.03F WCI  17
FARIBAULT      LGT SNOW  28  27  93 N9        29.99F WCI  20
OWATONNA       RAIN      28  27  93 N9        29.97F WCI  20
WASECA         LGT SNOW  30  28  93 VRB13     29.98F WCI  20
ALBERT LEA     LGT SNOW  28  28 100 N9        29.94F WCI  20
$$
MNZ078>079-086>088-094>096-270800-
   Southeast Minnesota

CITY           SKY/WX    TMP DP  RH WIND       PRES   REMARKS
ROCHESTER      FLURRIES  30  28  92 N12       29.93F WCI  20
RED WING       SNOW      30  27  86 NE5       29.98S VSB 1/2 WCI  25
STANTON        LGT SNOW  30  28  90 N10       29.98S VSB 1   WCI  21
DODGE CENTER   LGT SNOW  28  28 100 N12       29.94F WCI  18
WINONA         MIX PCPN  34  34 100 CALM      29.97F
AUSTIN         LGT SNOW  30  28  93 NE7       29.93F WCI  23
PRESTON        CLOUDY    30  29  96 N5        29.93F WCI  25
$$
ABBREVIATIONS USED IN REMARKS
   TC - TEMPERATURES IN CELSIUS
  WCI - WIND CHILL INDEX
   HX - HEAT INDEX
  VSB - VISIBILITY
$$



USA.gov is the U.S. government's official web portal to all federal, state and local government web resources and services.